Weather History for Palmdale - Butte, CA

Change the Weather History Date:

Tuesday, November 26, 2013

  Actual Average (KPMD) Record (KPMD)
Temperature  
Mean Temperature 50 °F 48 °F  
Max Temperature 60 °F 63 °F 84 °F (1977)
Min Temperature 40 °F 33 °F 21 °F (2010)
Degree Days  
Heating Degree Days 15 17  
Month to date heating degree days 328  
Since 1 July heating degree days 455  
Cooling Degree Days 0 0  
Month to date cooling degree days 0  
Year to date cooling degree days 1814  
Moisture  
Dew Point 35 °F    
Average Humidity 58    
Maximum Humidity 76    
Minimum Humidity 36    
Precipitation  
Precipitation 0.00 in 0.02 in 0.76 in (2008)
Month to date precipitation 0.63  
Year to date precipitation 7.08  
Since 1 July precipitation 1.76  
Snow  
Snow 0.00 in - 0.00 in (2002)
Month to date snowfall  
Since 1 July snowfall  
Since 1 September snowfall  
Snow Depth -    
Sea Level Pressure  
Sea Level Pressure 30.26 in    
Wind  
Wind Speed 5 mph (ESE)    
Max Wind Speed 8 mph    
Max Gust Speed -    
Visibility 10 miles    
Events      
T = Trace of Precipitation, MM = Missing Value Source: NWS Daily Summary

Daily Weather History Graph

Daily Weather History Graph

Search for Another Location

Airport:

Trip Planner

Search our weather history database for the weather conditions in past years. The results will help you decide how hot, cold, wet, or windy it might be!

Date:

Astronomy

Nov. 26, 2013 Rise Set
Actual Time 6:35 AM PST 4:40 PM PST
Civil Twilight 6:07 AM PST 5:08 PM PST
Nautical Twilight 5:36 AM PST 5:39 PM PST
Astronomical Twilight 5:06 AM PST 6:09 PM PST
Moon No Moon Rise 12:35 PM PST (11/26)
Length of Visible Light 11h 00m
Length of Day
10h 05m
Last Quarter, 40% of the Moon is Illuminated
Nov 26
Last Quarter
Dec 2
New
Dec 9
First Quarter
Dec 17
Full
Dec 25
Last Quarter

Hourly Weather History & Observations

Time (PST) Temp. Windchill Dew Point Humidity Pressure Visibility Wind Dir Wind Speed Gust Speed Precip Events Conditions
12:55 AM 44.6 °F 42.2 °F 32.7 °F 63% 30.29 in 10.0 mi SE 4.6 mph - N/A   Clear
1:55 AM 43.3 °F 39.9 °F 32.4 °F 65% 30.29 in 10.0 mi SE 5.8 mph - N/A   Clear
2:55 AM 43.9 °F 40.5 °F 31.8 °F 63% 30.29 in 10.0 mi ESE 5.8 mph - N/A   Clear
3:55 AM 43.3 °F 39.9 °F 32.7 °F 66% 30.29 in 10.0 mi ESE 5.8 mph - N/A   Clear
4:55 AM 43.5 °F 40.1 °F 32.4 °F 65% 30.31 in 10.0 mi SE 5.8 mph - N/A   Clear
5:55 AM 43.5 °F 40.1 °F 31.8 °F 63% 30.31 in 10.0 mi ESE 5.8 mph - N/A   Clear
6:55 AM 40.5 °F - 31.8 °F 71% 30.36 in 10.0 mi NNW 1.2 mph - N/A   Partly Cloudy
7:55 AM 42.6 °F 40.9 °F 33.4 °F 70% 30.37 in 10.0 mi SW 3.5 mph - N/A   Clear
8:55 AM 51.6 °F - 34.9 °F 53% 30.35 in 10.0 mi NE 3.5 mph - N/A   Clear
9:55 AM 54.3 °F - 35.1 °F 48% 30.33 in 10.0 mi ENE 8.1 mph - N/A   Clear
10:55 AM 57.2 °F - 32.4 °F 39% 30.31 in 10.0 mi East 5.8 mph - N/A   Clear
11:55 AM 58.6 °F - 32.9 °F 38% 30.26 in 10.0 mi ENE 6.9 mph - N/A   Partly Cloudy
12:55 PM 59.0 °F - 34.3 °F 40% 30.23 in 10.0 mi ENE 6.9 mph - N/A   Clear
1:55 PM 59.9 °F - 34.7 °F 39% 30.21 in 10.0 mi East 3.5 mph - N/A   Partly Cloudy
2:55 PM 60.3 °F - 33.1 °F 36% 30.19 in 10.0 mi NE 6.9 mph - N/A   Partly Cloudy
3:55 PM 58.6 °F - 34.3 °F 40% 30.19 in 10.0 mi NE 5.8 mph - N/A   Clear
4:55 PM 54.7 °F - 37.8 °F 53% 30.20 in 10.0 mi ENE 4.6 mph - N/A   Mostly Cloudy
5:55 PM 50.5 °F - 39.0 °F 65% 30.22 in 10.0 mi East 3.5 mph - N/A   Scattered Clouds
6:55 PM 48.9 °F - 39.6 °F 70% 30.24 in 10.0 mi SSE 2.3 mph - N/A   Mostly Cloudy
7:55 PM 48.4 °F - 36.3 °F 63% 30.25 in 10.0 mi SE 3.5 mph - N/A   Mostly Cloudy
8:55 PM 47.1 °F - 37.0 °F 68% 30.22 in 10.0 mi SSE 2.3 mph - N/A   Mostly Cloudy
9:55 PM 46.2 °F - 37.4 °F 71% 30.21 in 10.0 mi ESE 2.3 mph - N/A   Mostly Cloudy
10:55 PM 46.6 °F - 37.0 °F 69% 30.18 in 10.0 mi SE 1.2 mph - N/A   Mostly Cloudy
11:55 PM 43.9 °F 42.3 °F 36.7 °F 76% 30.18 in 10.0 mi SE 3.5 mph - N/A   Mostly Cloudy